Time,TemperatureF,DewpointF,PressureIn,WindDirection,WindDirectionDegrees,WindSpeedMPH,WindSpeedGustMPH,Humidity,HourlyPrecipIn,Conditions,Clouds,dailyrainin,SoftwareType,DateUTC
2013-03-01 00:04:00,23.4,16.0,30.07,NE,49,10.0,16.0,74,0.00,,,0.00,weatherlink.com 1.10,2013-03-01 05:04:00,
2013-03-01 00:19:00,23.0,16.0,30.08,ENE,67,13.0,20.0,74,0.00,,,0.00,weatherlink.com 1.10,2013-03-01 05:19:00,
2013-03-01 00:34:00,22.6,15.0,30.08,NE,52,9.0,21.0,74,0.00,,,0.00,weatherlink.com 1.10,2013-03-01 05:34:00,
2013-03-01 00:50:00,22.4,16.0,30.08,ENE,63,9.0,19.0,75,0.00,,,0.00,weatherlink.com 1.10,2013-03-01 05:50:00,
2013-03-01 01:05:00,22.0,15.0,30.09,East,88,15.0,16.0,75,0.00,,,0.00,weatherlink.com 1.10,2013-03-01 06:05:00,
2013-03-01 01:20:00,21.5,15.0,30.09,ENE,67,11.0,16.0,76,0.00,,,0.00,weatherlink.com 1.10,2013-03-01 06:20:00,
2013-03-01 01:35:00,20.9,14.0,30.09,NE,49,15.0,16.0,76,0.00,,,0.00,weatherlink.com 1.10,2013-03-01 06:35:00,
2013-03-01 01:50:00,20.7,14.0,30.09,NE,47,11.0,18.0,76,0.00,,,0.00,weatherlink.com 1.10,2013-03-01 06:50:00,
2013-03-01 02:05:00,20.4,14.0,30.10,East,89,15.0,18.0,77,0.00,,,0.00,weatherlink.com 1.10,2013-03-01 07:05:00,
2013-03-01 02:20:00,20.1,14.0,30.10,NE,43,8.0,16.0,77,0.00,,,0.00,weatherlink.com 1.10,2013-03-01 07:20:00,
2013-03-01 02:35:00,20.0,14.0,30.10,ENE,63,8.0,13.0,77,0.00,,,0.00,weatherlink.com 1.10,2013-03-01 07:35:00,
2013-03-01 02:50:00,19.7,14.0,30.10,NE,39,8.0,15.0,77,0.00,,,0.00,weatherlink.com 1.10,2013-03-01 07:50:00,
2013-03-01 03:05:00,19.4,13.0,30.10,ENE,73,5.0,14.0,77,0.00,,,0.00,weatherlink.com 1.10,2013-03-01 08:05:00,
2013-03-01 03:20:00,19.0,13.0,30.10,ENE,65,7.0,15.0,77,0.00,,,0.00,weatherlink.com 1.10,2013-03-01 08:20:00,
2013-03-01 03:35:00,18.7,13.0,30.11,ENE,69,8.0,15.0,77,0.00,,,0.00,weatherlink.com 1.10,2013-03-01 08:35:00,
2013-03-01 03:50:00,18.4,12.0,30.11,ENE,71,12.0,16.0,77,0.00,,,0.00,weatherlink.com 1.10,2013-03-01 08:50:00,
2013-03-01 04:05:00,18.2,12.0,30.11,ENE,59,11.0,13.0,78,0.00,,,0.00,weatherlink.com 1.10,2013-03-01 09:05:00,
2013-03-01 04:20:00,18.1,12.0,30.12,NE,53,9.0,16.0,78,0.00,,,0.00,weatherlink.com 1.10,2013-03-01 09:20:00,
2013-03-01 04:35:00,17.9,12.0,30.13,ENE,59,9.0,15.0,78,0.00,,,0.00,weatherlink.com 1.10,2013-03-01 09:35:00,
2013-03-01 04:50:00,17.7,12.0,30.13,East,90,8.0,14.0,78,0.00,,,0.00,weatherlink.com 1.10,2013-03-01 09:50:00,
2013-03-01 05:05:00,17.6,12.0,30.13,ENE,66,13.0,15.0,79,0.00,,,0.00,weatherlink.com 1.10,2013-03-01 10:05:00,
2013-03-01 05:20:00,17.7,12.0,30.13,ENE,76,7.0,15.0,79,0.00,,,0.00,weatherlink.com 1.10,2013-03-01 10:20:00,
2013-03-01 05:35:00,17.7,13.0,30.14,ENE,66,7.0,15.0,80,0.00,,,0.00,weatherlink.com 1.10,2013-03-01 10:35:00,
2013-03-01 05:50:00,17.7,13.0,30.14,NE,53,8.0,15.0,80,0.00,,,0.00,weatherlink.com 1.10,2013-03-01 10:50:00,
2013-03-01 06:05:00,17.7,13.0,30.14,NNE,33,8.0,14.0,81,0.00,,,0.00,weatherlink.com 1.10,2013-03-01 11:05:00,
2013-03-01 06:20:00,17.7,13.0,30.14,NE,54,7.0,19.0,81,0.00,,,0.00,weatherlink.com 1.10,2013-03-01 11:20:00,
2013-03-01 06:35:00,17.7,13.0,30.15,NE,56,9.0,20.0,80,0.00,,,0.00,weatherlink.com 1.10,2013-03-01 11:35:00,
2013-03-01 06:50:00,17.5,12.0,30.15,NE,54,18.0,20.0,80,0.00,,,0.00,weatherlink.com 1.10,2013-03-01 11:50:00,
2013-03-01 07:05:00,17.3,12.0,30.16,NE,40,16.0,19.0,80,0.00,,,0.00,weatherlink.com 1.10,2013-03-01 12:05:00,
2013-03-01 07:20:00,16.9,12.0,30.16,East,88,9.0,18.0,80,0.00,,,0.00,weatherlink.com 1.10,2013-03-01 12:20:00,
2013-03-01 07:36:00,16.7,12.0,30.17,East,98,8.0,17.0,80,0.00,,,0.00,weatherlink.com 1.10,2013-03-01 12:36:00,
2013-03-01 07:51:00,16.6,12.0,30.18,East,91,8.0,15.0,81,0.00,,,0.00,weatherlink.com 1.10,2013-03-01 12:51:00,
2013-03-01 08:06:00,16.6,12.0,30.19,ENE,69,17.0,17.0,81,0.00,,,0.00,weatherlink.com 1.10,2013-03-01 13:06:00,
2013-03-01 08:21:00,16.4,12.0,30.19,NE,40,12.0,16.0,81,0.00,,,0.00,weatherlink.com 1.10,2013-03-01 13:21:00,
2013-03-01 08:36:00,16.3,12.0,30.19,ENE,61,8.0,13.0,82,0.00,,,0.00,weatherlink.com 1.10,2013-03-01 13:36:00,
2013-03-01 08:51:00,16.5,13.0,30.19,ENE,61,9.0,13.0,84,0.00,,,0.00,weatherlink.com 1.10,2013-03-01 13:51:00,
2013-03-01 09:06:00,16.7,13.0,30.19,East,89,13.0,16.0,85,0.00,,,0.00,weatherlink.com 1.10,2013-03-01 14:06:00,
2013-03-01 09:21:00,17.0,13.0,30.19,ENE,59,5.0,15.0,85,0.00,,,0.00,weatherlink.com 1.10,2013-03-01 14:21:00,
2013-03-01 09:36:00,17.1,13.0,30.19,NE,44,10.0,15.0,85,0.00,,,0.00,weatherlink.com 1.10,2013-03-01 14:36:00,
2013-03-01 09:51:00,17.3,13.0,30.19,NE,50,7.0,14.0,84,0.00,,,0.00,weatherlink.com 1.10,2013-03-01 14:51:00,
2013-03-01 10:06:00,17.6,14.0,30.20,NE,50,10.0,16.0,84,0.00,,,0.00,weatherlink.com 1.10,2013-03-01 15:06:00,
2013-03-01 10:21:00,17.7,13.0,30.20,NE,54,11.0,15.0,83,0.00,,,0.00,weatherlink.com 1.10,2013-03-01 15:21:00,
2013-03-01 10:36:00,18.1,14.0,30.20,NE,40,6.0,16.0,82,0.00,,,0.00,weatherlink.com 1.10,2013-03-01 15:36:00,
2013-03-01 10:51:00,18.4,14.0,30.20,ENE,57,8.0,14.0,82,0.00,,,0.00,weatherlink.com 1.10,2013-03-01 15:51:00,
2013-03-01 11:06:00,18.9,14.0,30.20,East,88,10.0,15.0,80,0.00,,,0.00,weatherlink.com 1.10,2013-03-01 16:06:00,
2013-03-01 11:21:00,19.1,14.0,30.20,ENE,69,11.0,12.0,80,0.00,,,0.00,weatherlink.com 1.10,2013-03-01 16:21:00,
2013-03-01 11:36:00,19.7,14.0,30.20,ENE,74,4.0,13.0,79,0.00,,,0.00,weatherlink.com 1.10,2013-03-01 16:36:00,
2013-03-01 11:51:00,19.5,14.0,30.20,ENE,71,7.0,13.0,79,0.00,,,0.00,weatherlink.com 1.10,2013-03-01 16:51:00,
2013-03-01 12:06:00,20.3,14.0,30.20,East,87,5.0,12.0,77,0.00,,,0.00,weatherlink.com 1.10,2013-03-01 17:06:00,
2013-03-01 12:21:00,20.4,15.0,30.21,East,83,6.0,12.0,78,0.00,,,0.00,weatherlink.com 1.10,2013-03-01 17:21:00,
2013-03-01 12:36:00,20.9,15.0,30.20,North,11,13.0,14.0,77,0.00,,,0.00,weatherlink.com 1.10,2013-03-01 17:36:00,
2013-03-01 12:51:00,20.8,15.0,30.20,NNE,33,10.0,16.0,79,0.00,,,0.00,weatherlink.com 1.10,2013-03-01 17:51:00,
2013-03-01 13:06:00,21.0,15.0,30.19,NE,34,9.0,15.0,79,0.00,,,0.00,weatherlink.com 1.10,2013-03-01 18:06:00,
2013-03-01 13:21:00,21.5,15.0,30.19,NNE,32,13.0,15.0,76,0.00,,,0.00,weatherlink.com 1.10,2013-03-01 18:21:00,
2013-03-01 13:36:00,22.1,15.0,30.19,NE,44,10.0,17.0,75,0.00,,,0.00,weatherlink.com 1.10,2013-03-01 18:36:00,
2013-03-01 13:51:00,22.5,16.0,30.18,North,5,13.0,17.0,76,0.00,,,0.00,weatherlink.com 1.10,2013-03-01 18:51:00,
2013-03-01 14:06:00,23.0,17.0,30.18,NE,39,12.0,17.0,76,0.00,,,0.00,weatherlink.com 1.10,2013-03-01 19:06:00,
2013-03-01 14:21:00,23.6,17.0,30.17,North,355,11.0,17.0,75,0.00,,,0.00,weatherlink.com 1.10,2013-03-01 19:21:00,
2013-03-01 14:36:00,23.6,16.0,30.17,North,355,11.0,18.0,73,0.00,,,0.00,weatherlink.com 1.10,2013-03-01 19:36:00,
2013-03-01 14:51:00,24.0,17.0,30.17,NNE,19,16.0,20.0,75,0.00,,,0.00,weatherlink.com 1.10,2013-03-01 19:51:00,
2013-03-01 15:06:00,24.2,17.0,30.16,NNE,25,14.0,21.0,74,0.00,,,0.00,weatherlink.com 1.10,2013-03-01 20:06:00,
2013-03-01 15:21:00,24.6,17.0,30.17,NNE,12,18.0,20.0,73,0.00,,,0.00,weatherlink.com 1.10,2013-03-01 20:21:00,
2013-03-01 15:36:00,24.8,17.0,30.16,North,360,15.0,21.0,72,0.00,,,0.00,weatherlink.com 1.10,2013-03-01 20:36:00,
2013-03-01 15:51:00,25.3,17.0,30.16,North,5,13.0,20.0,71,0.00,,,0.00,weatherlink.com 1.10,2013-03-01 20:51:00,
2013-03-01 16:06:00,25.6,17.0,30.16,North,5,14.0,19.0,71,0.00,,,0.00,weatherlink.com 1.10,2013-03-01 21:06:00,
2013-03-01 16:21:00,25.8,17.0,30.16,NNE,32,11.0,22.0,70,0.00,,,0.00,weatherlink.com 1.10,2013-03-01 21:21:00,
2013-03-01 16:36:00,25.6,17.0,30.16,NNE,15,14.0,23.0,69,0.00,,,0.00,weatherlink.com 1.10,2013-03-01 21:36:00,
2013-03-01 16:51:00,25.6,17.0,30.16,NNE,29,17.0,23.0,70,0.00,,,0.00,weatherlink.com 1.10,2013-03-01 21:51:00,
2013-03-01 17:06:00,25.6,16.0,30.16,NNE,19,19.0,23.0,68,0.00,,,0.00,weatherlink.com 1.10,2013-03-01 22:06:00,
2013-03-01 17:21:00,25.7,17.0,30.17,NE,42,16.0,23.0,69,0.00,,,0.00,weatherlink.com 1.10,2013-03-01 22:21:00,
2013-03-01 17:36:00,25.7,16.0,30.17,NE,43,14.0,22.0,67,0.00,,,0.00,weatherlink.com 1.10,2013-03-01 22:36:00,
2013-03-01 17:51:00,25.6,16.0,30.18,NNE,17,14.0,22.0,66,0.00,,,0.00,weatherlink.com 1.10,2013-03-01 22:51:00,
2013-03-01 18:06:00,25.4,15.0,30.18,NE,40,15.0,19.0,66,0.00,,,0.00,weatherlink.com 1.10,2013-03-01 23:06:00,
2013-03-01 18:21:00,25.2,16.0,30.18,NNE,32,17.0,22.0,69,0.00,,,0.00,weatherlink.com 1.10,2013-03-01 23:21:00,
2013-03-01 18:36:00,24.9,16.0,30.19,North,11,19.0,21.0,70,0.00,,,0.00,weatherlink.com 1.10,2013-03-01 23:36:00,
2013-03-01 18:51:00,24.6,16.0,30.19,NE,35,19.0,21.0,70,0.00,,,0.00,weatherlink.com 1.10,2013-03-01 23:51:00,
2013-03-01 19:06:00,24.5,16.0,30.19,NNE,30,22.0,23.0,70,0.00,,,0.00,weatherlink.com 1.10,2013-03-02 00:06:00,
2013-03-01 19:21:00,24.5,16.0,30.20,ENE,57,18.0,21.0,71,0.00,,,0.00,weatherlink.com 1.10,2013-03-02 00:21:00,
2013-03-01 19:36:00,24.4,16.0,30.20,NE,42,15.0,27.0,70,0.00,,,0.00,weatherlink.com 1.10,2013-03-02 00:36:00,
2013-03-01 19:51:00,24.3,15.0,30.20,NE,51,14.0,23.0,69,0.00,,,0.00,weatherlink.com 1.10,2013-03-02 00:51:00,
2013-03-01 20:06:00,23.9,14.0,30.20,NE,37,13.0,20.0,66,0.00,,,0.00,weatherlink.com 1.10,2013-03-02 01:06:00,
2013-03-01 20:21:00,23.8,14.0,30.20,NNE,31,13.0,21.0,65,0.00,,,0.00,weatherlink.com 1.10,2013-03-02 01:21:00,
2013-03-01 20:36:00,23.9,14.0,30.20,NE,36,15.0,25.0,65,0.00,,,0.00,weatherlink.com 1.10,2013-03-02 01:36:00,
2013-03-01 20:51:00,23.9,14.0,30.20,NNE,17,10.0,19.0,67,0.00,,,0.00,weatherlink.com 1.10,2013-03-02 01:51:00,
2013-03-01 21:06:00,23.7,15.0,30.20,NNE,17,13.0,22.0,68,0.00,,,0.00,weatherlink.com 1.10,2013-03-02 02:06:00,
2013-03-01 21:21:00,23.6,14.0,30.20,NE,44,13.0,23.0,67,0.00,,,0.00,weatherlink.com 1.10,2013-03-02 02:21:00,
2013-03-01 21:36:00,23.3,14.0,30.19,NE,40,19.0,20.0,67,0.00,,,0.00,weatherlink.com 1.10,2013-03-02 02:36:00,
2013-03-01 21:51:00,23.1,14.0,30.19,NE,40,12.0,19.0,69,0.00,,,0.00,weatherlink.com 1.10,2013-03-02 02:51:00,
2013-03-01 22:06:00,22.8,14.0,30.19,NE,40,14.0,18.0,70,0.00,,,0.00,weatherlink.com 1.10,2013-03-02 03:06:00,
2013-03-01 22:21:00,22.7,14.0,30.19,NE,38,9.0,19.0,70,0.00,,,0.00,weatherlink.com 1.10,2013-03-02 03:21:00,
2013-03-01 22:36:00,22.6,14.0,30.19,ENE,68,12.0,15.0,70,0.00,,,0.00,weatherlink.com 1.10,2013-03-02 03:36:00,
2013-03-01 22:51:00,22.5,14.0,30.19,NE,49,8.0,15.0,70,0.00,,,0.00,weatherlink.com 1.10,2013-03-02 03:51:00,
2013-03-01 23:06:00,22.1,14.0,30.19,ENE,67,13.0,14.0,70,0.00,,,0.00,weatherlink.com 1.10,2013-03-02 04:06:00,
2013-03-01 23:21:00,21.7,14.0,30.19,East,80,7.0,15.0,71,0.00,,,0.00,weatherlink.com 1.10,2013-03-02 04:21:00,
2013-03-01 23:36:00,21.2,13.0,30.18,ENE,73,7.0,16.0,70,0.00,,,0.00,weatherlink.com 1.10,2013-03-02 04:36:00,
2013-03-01 23:51:00,20.8,12.0,30.18,ENE,64,12.0,15.0,70,0.00,,,0.00,weatherlink.com 1.10,2013-03-02 04:51:00,